DW0479 Weather Reports


time (UTC)temp
C
wind
direction
speed
KPH
gust
KPH
rain 1hr
cm
rain 24hr
cm
rain mn
cm
humidity
%
barometer
mb
20260507064108 23 170 4.8 8.0 0.00 0.00 0.00 76 1015.2
20260507063109 23 181 3.2 9.7 0.00 0.00 0.00 76 1015.3
20260507062548 23 183 4.8 9.7 0.00 0.00 0.00 75 1015.4
20260507061103 23 174 4.8 9.7 0.00 0.00 0.00 74 1015.5
20260507060105 23 192 4.8 16.1 0.00 0.00 0.00 74 1015.6
20260507055538 23 150 6.4 11.3 0.00 0.00 0.00 74 1015.6
20260507054101 23 189 6.4 12.9 0.00 0.00 0.00 73 1015.6
20260507053101 23 177 6.4 11.3 0.00 0.00 0.00 73 1015.7
20260507052102 23 165 6.4 11.3 0.00 0.00 0.00 73 1015.9
20260507051548 23 176 3.2 9.7 0.00 0.00 0.00 74 1016.0
20260507045105 23 167 3.2 9.7 0.00 0.00 0.00 73 1016.2
20260507044050 23 177 3.2 8.0 0.00 0.00 0.00 72 1016.4
20260507043048 23 150 3.2 11.3 0.00 0.00 0.00 71 1016.4
20260507042048 24 147 3.2 11.3 0.00 0.00 0.00 70 1016.3
20260507041048 24 151 4.8 11.3 0.00 0.00 0.00 70 1016.2
20260507040047 24 154 4.8 11.3 0.00 0.00 0.00 69 1016.2
20260507035524 24 156 3.2 8.0 0.00 0.00 0.00 69 1016.3
20260507034037 25 156 4.8 9.7 0.00 0.00 0.00 68 1016.3
20260507033521 25 154 4.8 11.3 0.00 0.00 0.00 67 1016.3
20260507032036 25 147 4.8 14.5 0.00 0.00 0.00 66 1016.2
20260507031037 25 160 4.8 11.3 0.00 0.00 0.00 66 1016.1
20260507030035 25 147 4.8 11.3 0.00 0.00 0.00 66 1016.1
20260507025037 25 146 6.4 11.3 0.00 0.00 0.00 65 1016.0
20260507024037 26 148 4.8 14.5 0.00 0.00 0.00 64 1016.2
20260507023037 26 171 6.4 14.5 0.00 0.00 0.00 63 1016.2
20260507022035 26 170 8.0 20.9 0.00 0.00 0.00 63 1016.2
20260507021036 26 181 4.8 14.5 0.00 0.00 0.00 64 1016.1
20260507020039 26 176 6.4 14.5 0.00 0.00 0.00 63 1016.0
20260507015023 26 173 4.8 11.3 0.00 0.00 0.00 62 1016.0
20260507014502 26 154 4.8 14.5 0.00 0.00 0.00 59 1015.7
20260507013022 27 156 4.8 14.5 0.00 0.00 0.00 58 1015.6
20260507012024 27 129 6.4 16.1 0.00 0.00 0.00 57 1015.5
20260507011502 27 108 8.0 16.1 0.00 0.00 0.00 57 1015.4
20260507010014 28 129 6.4 14.5 0.00 0.00 0.00 56 1015.3
20260507005448 28 115 8.0 20.9 0.00 0.00 0.00 55 1015.2
20260507004011 28 119 4.8 14.5 0.00 0.00 0.00 55 1015.2
20260507003013 28 94 8.0 16.1 0.00 0.00 0.00 54 1015.0
20260507002012 29 109 6.4 16.1 0.00 0.00 0.00 53 1015.0
20260507001002 30 117 8.0 17.7 0.00 0.00 0.00 52 1014.9
20260507000002 30 109 6.4 20.9 0.00 0.00 0.00 52 1014.9
20260506235002 30 105 6.4 17.7 0.00 0.00 0.00 51 1014.7
20260506234002 31 94 6.4 19.3 0.00 0.00 0.00 47 1014.6
20260506233004 32 132 4.8 9.7 0.00 0.00 0.00 42 1014.5
20260506231948 32 103 4.8 12.9 0.00 0.00 0.00 41 1014.5
20260506230948 32 97 6.4 16.1 0.00 0.00 0.00 40 1014.6
20260506225948 33 92 6.4 16.1 0.00 0.00 0.00 40 1014.6
20260506224948 33 71 4.8 12.9 0.00 0.00 0.00 40 1014.6
20260506223949 33 100 6.4 16.1 0.00 0.00 0.00 41 1014.6
20260506222934 33 120 6.4 16.1 0.00 0.00 0.00 40 1014.6
20260506221935 33 98 4.8 14.5 0.00 0.00 0.00 41 1014.6
20260506220936 33 120 6.4 16.1 0.00 0.00 0.00 41 1014.6
20260506220906 34 111 4.8 12.9 0.00 0.00 0.00 40 1014.7
20260506214936 34 58 6.4 14.5 0.00 0.00 0.00 42 1014.7
20260506213936 34 124 6.4 12.9 0.00 0.00 0.00 40 1014.6
20260506212926 34 63 3.2 11.3 0.00 0.00 0.00 43 1014.7
20260506212849 34 171 4.8 16.1 0.00 0.00 0.00 40 1014.6
20260506210926 34 85 8.0 17.7 0.00 0.00 0.00 41 1014.6
20260506205923 34 113 6.4 16.1 0.00 0.00 0.00 40 1014.6
20260506204926 35 138 4.8 12.9 0.00 0.00 0.00 40 1014.6
20260506203916 34 135 4.8 12.9 0.00 0.00 0.00 38 1014.7
20260506202918 35 136 4.8 12.9 0.00 0.00 0.00 39 1014.8
20260506202406 35 143 3.2 8.0 0.00 0.00 0.00 40 1014.9
20260506200918 34 326 3.2 8.0 0.00 0.00 0.00 38 1014.8
20260506195916 34 5 4.8 14.5 0.00 0.00 0.00 39 1014.9
20260506194917 34 130 6.4 17.7 0.00 0.00 0.00 38 1014.9
20260506193918 34 181 3.2 11.3 0.00 0.00 0.00 39 1015.1
20260506192914 35 200 3.2 9.7 0.00 0.00 0.00 37 1015.2
20260506191913 35 135 4.8 11.3 0.00 0.00 0.00 40 1015.3
20260506190912 34 165 6.4 17.7 0.00 0.00 0.00 40 1015.5
20260506190357 34 223 4.8 12.9 0.00 0.00 0.00 40 1015.7
20260506184914 33 231 8.0 17.7 0.00 0.00 0.00 40 1015.7
20260506183913 34 193 6.4 16.1 0.00 0.00 0.00 40 1015.9
20260506182912 34 201 4.8 12.9 0.00 0.00 0.00 40 1016.0
20260506181910 33 256 6.4 12.9 0.00 0.00 0.00 40 1016.0
20260506181357 33 172 4.8 14.5 0.00 0.00 0.00 41 1016.1
20260506175910 33 242 6.4 14.5 0.00 0.00 0.00 38 1016.4
20260506174910 33 247 4.8 16.1 0.00 0.00 0.00 44 1016.4
20260506173912 32 326 4.8 11.3 0.00 0.00 0.00 47 1016.6
20260506172911 33 198 4.8 11.3 0.00 0.00 0.00 44 1016.7
20260506171910 32 192 3.2 11.3 0.00 0.00 0.00 46 1016.8
20260506170910 32 83 6.4 17.7 0.00 0.00 0.00 45 1016.7
20260506165910 32 119 6.4 12.9 0.00 0.00 0.00 47 1016.8
20260506164913 32 157 4.8 14.5 0.00 0.00 0.00 47 1016.9
20260506163901 31 194 6.4 16.1 0.00 0.00 0.00 48 1017.0
20260506162859 31 212 8.0 17.7 0.00 0.00 0.00 49 1017.0
20260506162339 31 236 6.4 16.1 0.00 0.00 0.00 49 1017.1
20260506160858 31 210 6.4 16.1 0.00 0.00 0.00 51 1017.0
20260506155858 31 173 8.0 17.7 0.00 0.00 0.00 50 1017.1
20260506154858 31 232 6.4 19.3 0.00 0.00 0.00 51 1017.0
20260506153859 30 123 8.0 17.7 0.00 0.00 0.00 54 1017.1
20260506152859 30 206 8.0 16.1 0.00 0.00 0.00 57 1017.2
20260506151856 30 200 9.7 17.7 0.00 0.00 0.00 59 1017.2
20260506150856 29 171 8.0 14.5 0.00 0.00 0.00 62 1017.2
20260506145858 29 155 6.4 16.1 0.00 0.00 0.00 62 1017.2
20260506144856 28 160 8.0 17.7 0.00 0.00 0.00 64 1017.2
20260506143856 28 151 4.8 14.5 0.00 0.00 0.00 68 1017.3
20260506142852 27 177 6.4 16.1 0.00 0.00 0.00 70 1017.4
20260506141851 27 157 6.4 14.5 0.00 0.00 0.00 73 1017.4
20260506140852 27 169 6.4 14.5 0.00 0.00 0.00 73 1017.4
20260506140336 27 139 4.8 14.5 0.00 0.00 0.00 76 1017.3
20260506134853 26 166 6.4 14.5 0.00 0.00 0.00 76 1017.3
20260506133851 26 109 8.0 16.1 0.00 0.00 0.00 78 1017.3
20260506132852 26 185 6.4 16.1 0.00 0.00 0.00 79 1017.2
20260506131852 25 160 6.4 14.5 0.00 0.00 0.00 83 1017.1
20260506130854 24 162 4.8 11.3 0.00 0.00 0.00 84 1017.0
20260506130325 23 133 4.8 11.3 0.00 0.00 0.00 86 1016.9
20260506124842 23 162 3.2 8.0 0.00 0.00 0.00 88 1016.8
20260506123842 22 132 1.6 6.4 0.00 0.00 0.00 90 1016.8
20260506123758 21 71 0.0 1.6 0.00 0.00 0.00 90 1016.8
20260506121846 20 71 0.0 1.6 0.00 0.00 0.00 90 1016.7
20260506120839 19 343 0.0 1.6 0.00 0.00 0.00 91 1016.6
20260506115836 18 343 0.0 0.0 0.00 0.00 0.00 92 1016.6
20260506114838 18 341 0.0 0.0 0.00 0.00 0.00 92 1016.5
20260506113835 17 317 0.0 1.6 0.00 0.00 0.00 93 1016.6
20260506112836 16 162 0.0 0.0 0.00 0.00 0.00 93 1016.4
20260506111829 16 203 0.0 0.0 0.00 0.00 0.00 93 1016.3
20260506110830 16 117 0.0 0.0 0.00 0.00 0.00 93 1016.2
20260506110259 16 105 0.0 0.0 0.00 0.00 0.00 93 1015.9
20260506104829 16 106 0.0 0.0 0.00 0.00 0.00 92 1016.1
20260506103830 16 106 0.0 0.0 0.00 0.00 0.00 92 1015.9
20260506102820 16 106 0.0 0.0 0.00 0.00 0.00 91 1016.0
20260506101818 16 105 0.0 0.0 0.00 0.00 0.00 91 1015.9
20260506100819 16 106 0.0 0.0 0.00 0.00 0.00 92 1015.9
20260506095818 16 105 0.0 0.0 0.00 0.00 0.00 92 1015.8
20260506094819 16 105 0.0 0.0 0.00 0.00 0.00 91 1015.8
20260506093818 16 106 0.0 0.0 0.00 0.00 0.00 91 1015.8
20260506092816 16 105 0.0 0.0 0.00 0.00 0.00 92 1015.6
20260506092252 16 106 0.0 0.0 0.00 0.00 0.00 92 1015.7
20260506090815 16 105 0.0 0.0 0.00 0.00 0.00 92 1015.5
20260506085817 16 106 0.0 0.0 0.00 0.00 0.00 91 1015.5
20260506084815 16 105 0.0 0.0 0.00 0.00 0.00 91 1015.6
20260506083813 16 106 0.0 0.0 0.00 0.00 0.00 91 1015.6
20260506082816 16 106 0.0 0.0 0.00 0.00 0.00 90 1015.7
20260506081813 16 105 0.0 0.0 0.00 0.00 0.00 91 1015.7
20260506080814 16 105 0.0 0.0 0.00 0.00 0.00 91 1015.6
20260506072805 16 105 0.0 0.0 0.00 0.00 0.00 91 1015.8
20260506071805 16 106 0.0 0.0 0.00 0.00 0.00 91 1015.8
20260506071237 16 106 0.0 0.0 0.00 0.00 0.00 90 1015.8